�������l�o���
Date,Time,MP-1(��Sv/h),MP-2(��Sv/h),MP-3(��Sv/h),MP-4(��Sv/h),MP-5(��Sv/h),MP-6(��Sv/h),MP-7(��Sv/h),MP-8(��Sv/h),����,����(m/s),���J
2022/09/14,00:00,0.597,0.855,0.540,1.037,0.747,0.345,0.598,0.560,��,0.9,��
2022/09/14,00:10,0.596,0.855,0.541,1.037,0.745,0.344,0.598,0.560,��쐼,0.6,��
2022/09/14,00:20,0.597,0.855,0.539,1.038,0.747,0.343,0.599,0.561,���k��,0.6,��
2022/09/14,00:30,0.595,0.856,0.540,1.039,0.747,0.345,0.599,0.560,-,CALM,��
2022/09/14,00:40,0.596,0.857,0.540,1.036,0.746,0.343,0.597,0.561,���쐼,0.6,��
2022/09/14,00:50,0.596,0.856,0.543,1.038,0.746,0.342,0.598,0.561,���k��,0.8,��
2022/09/14,01:00,0.596,0.857,0.542,1.037,0.746,0.343,0.598,0.560,�k,0.9,��
2022/09/14,01:10,0.595,0.855,0.541,1.039,0.745,0.344,0.599,0.562,�k�k��,1.2,��
2022/09/14,01:20,0.595,0.858,0.541,1.039,0.746,0.344,0.600,0.561,�k��,1.7,��
2022/09/14,01:30,0.595,0.856,0.540,1.039,0.745,0.342,0.598,0.561,�k�k��,1.7,��
2022/09/14,01:40,0.595,0.853,0.541,1.036,0.747,0.344,0.599,0.562,�k��,2.3,��
2022/09/14,01:50,0.596,0.855,0.539,1.039,0.747,0.344,0.597,0.560,�k��,2.6,��
2022/09/14,02:00,0.595,0.856,0.541,1.036,0.746,0.341,0.597,0.560,�k��,2.6,��
2022/09/14,02:10,0.595,0.856,0.541,1.037,0.745,0.344,0.598,0.563,�k��,3.0,��
2022/09/14,02:20,0.596,0.854,0.540,1.035,0.745,0.343,0.599,0.561,�k��,3.1,��
2022/09/14,02:30,0.596,0.855,0.540,1.036,0.746,0.344,0.597,0.560,�k��,3.4,��
2022/09/14,02:40,0.596,0.853,0.539,1.037,0.745,0.343,0.597,0.560,�k��,3.0,��
2022/09/14,02:50,0.595,0.855,0.539,1.038,0.746,0.344,0.598,0.561,�k,2.5,��
2022/09/14,03:00,0.595,0.856,0.541,1.038,0.747,0.344,0.599,0.562,�k,3.6,��
2022/09/14,03:10,0.595,0.857,0.539,1.037,0.746,0.344,0.599,0.562,�k�k��,3.9,��
2022/09/14,03:20,0.595,0.855,0.539,1.038,0.746,0.345,0.600,0.561,�k�k��,4.8,��
2022/09/14,03:30,0.593,0.853,0.541,1.039,0.748,0.343,0.599,0.562,�k�k��,3.7,��
2022/09/14,03:40,0.594,0.854,0.541,1.038,0.746,0.344,0.598,0.561,�k,3.5,��
2022/09/14,03:50,0.594,0.853,0.542,1.039,0.747,0.343,0.599,0.562,�k,3.5,��
2022/09/14,04:00,0.592,0.852,0.539,1.037,0.743,0.342,0.597,0.560,�k,4.1,��
2022/09/14,04:10,0.594,0.852,0.540,1.038,0.746,0.342,0.597,0.562,�k,4.3,��
2022/09/14,04:20,0.593,0.855,0.539,1.036,0.745,0.343,0.599,0.560,�k,5.2,��
2022/09/14,04:30,0.593,0.854,0.538,1.036,0.745,0.342,0.598,0.560,�k,5.9,��
2022/09/14,04:40,0.593,0.854,0.539,1.036,0.745,0.342,0.598,0.560,�k,6.1,��
2022/09/14,04:50,0.593,0.855,0.539,1.035,0.745,0.342,0.597,0.560,�k,5.4,��
2022/09/14,05:00,0.594,0.852,0.539,1.036,0.745,0.343,0.599,0.562,�k,5.1,��
2022/09/14,05:10,0.595,0.852,0.540,1.036,0.743,0.342,0.599,0.560,�k�k��,4.0,��
2022/09/14,05:20,0.594,0.854,0.538,1.039,0.746,0.343,0.600,0.560,�k�k��,3.7,��
2022/09/14,05:30,0.594,0.852,0.541,1.037,0.746,0.342,0.598,0.561,�k�k��,4.3,��
2022/09/14,05:40,0.594,0.854,0.539,1.039,0.744,0.343,0.598,0.561,�k�k��,3.2,��
2022/09/14,05:50,0.594,0.856,0.540,1.038,0.746,0.342,0.597,0.560,�k�k��,2.6,��
2022/09/14,06:00,0.594,0.850,0.539,1.038,0.745,0.343,0.597,0.563,�k�k��,2.6,��
2022/09/14,06:10,0.594,0.854,0.538,1.038,0.745,0.342,0.599,0.561,�k�k��,4.8,��
2022/09/14,06:20,0.594,0.852,0.540,1.037,0.744,0.343,0.598,0.559,�k,6.3,��
2022/09/14,06:30,0.593,0.854,0.539,1.038,0.745,0.342,0.597,0.560,�k,6.7,��
2022/09/14,06:40,0.594,0.852,0.539,1.036,0.746,0.344,0.598,0.559,�k�k��,6.7,��
2022/09/14,06:50,0.594,0.850,0.538,1.036,0.745,0.342,0.599,0.559,�k�k��,6.1,��
2022/09/14,07:00,0.593,0.853,0.538,1.037,0.744,0.340,0.596,0.562,�k�k��,6.1,��
2022/09/14,07:10,0.593,0.852,0.538,1.037,0.743,0.341,0.599,0.562,�k�k��,4.6,��
2022/09/14,07:20,0.591,0.854,0.538,1.036,0.744,0.342,0.599,0.560,�k,4.4,��
2022/09/14,07:30,0.594,0.853,0.538,1.035,0.745,0.340,0.596,0.560,�k�k��,4.6,��
2022/09/14,07:40,0.593,0.849,0.537,1.038,0.744,0.341,0.597,0.563,�k�k��,5.1,��
2022/09/14,07:50,0.595,0.850,0.539,1.038,0.743,0.341,0.599,0.561,�k,4.0,��
2022/09/14,08:00,0.594,0.849,0.537,1.038,0.745,0.341,0.599,0.561,�k,4.4,��
2022/09/14,08:10,0.594,0.849,0.537,1.036,0.743,0.341,0.596,0.561,�k,4.0,��
2022/09/14,08:20,0.592,0.848,0.537,1.036,0.743,0.340,0.595,0.561,�k,2.3,��
2022/09/14,08:30,0.590,0.850,0.537,1.037,0.744,0.341,0.594,0.561,�k�k��,4.1,��
2022/09/14,08:40,0.592,0.850,0.537,1.037,0.744,0.341,0.595,0.558,�k�k��,4.4,��
2022/09/14,08:50,0.591,0.848,0.537,1.035,0.745,0.341,0.595,0.559,�k�k��,5.6,��
2022/09/14,09:00,0.592,0.849,0.537,1.035,0.743,0.341,0.594,0.560,�k�k��,5.8,��
2022/09/14,09:10,0.590,0.847,0.538,1.035,0.744,0.341,0.594,0.560,�k�k��,7.4,��
2022/09/14,09:20,0.594,0.850,0.536,1.037,0.743,0.340,0.595,0.559,�k�k��,7.3,��
2022/09/14,09:30,0.593,0.850,0.536,1.036,0.744,0.342,0.594,0.559,�k�k��,5.4,��
2022/09/14,09:40,0.592,0.851,0.536,1.039,0.743,0.341,0.595,0.558,�k�k��,7.3,��
2022/09/14,09:50,0.592,0.851,0.536,1.035,0.743,0.341,0.595,0.558,�k�k��,7.3,��
2022/09/14,10:00,0.592,0.850,0.536,1.038,0.743,0.341,0.595,0.558,�k�k��,6.6,��
2022/09/14,10:10,0.594,0.851,0.537,1.037,0.745,0.341,0.595,0.560,�k�k��,6.4,��
2022/09/14,10:20,0.593,0.851,0.536,1.039,0.745,0.339,0.595,0.559,�k�k��,6.2,��
2022/09/14,10:30,0.592,0.852,0.536,1.038,0.745,0.341,0.594,0.559,�k�k��,7.0,��
2022/09/14,10:40,0.594,0.849,0.539,1.038,0.747,0.340,0.595,0.559,�k�k��,6.8,��
2022/09/14,10:50,0.592,0.851,0.537,1.038,0.745,0.342,0.595,0.560,�k�k��,5.4,��
2022/09/14,11:00,0.593,0.849,0.538,1.038,0.745,0.340,0.596,0.560,�k�k��,5.9,��
2022/09/14,11:10,0.592,0.852,0.537,1.037,0.744,0.341,0.595,0.558,�k�k��,6.4,��
2022/09/14,11:20,0.594,0.853,0.537,1.039,0.745,0.341,0.595,0.562,�k�k��,6.3,��
2022/09/14,11:30,0.593,0.848,0.539,1.039,0.747,0.342,0.595,0.561,�k�k��,5.8,��
2022/09/14,11:40,0.593,0.852,0.539,1.039,0.747,0.341,0.595,0.560,�k�k��,6.1,��
2022/09/14,11:50,0.593,0.851,0.538,1.037,0.746,0.342,0.596,0.561,�k�k��,6.1,��
2022/09/14,12:00,0.593,0.852,0.537,1.039,0.746,0.340,0.595,0.561,�k�k��,6.0,��
2022/09/14,12:10,0.593,0.854,0.538,1.038,0.746,0.341,0.596,0.562,�k�k��,5.8,��
2022/09/14,12:20,0.594,0.854,0.539,1.039,0.748,0.340,0.597,0.561,�k�k��,5.5,��
2022/09/14,12:30,0.594,0.855,0.538,1.041,0.747,0.342,0.598,0.559,�k�k��,5.8,��
2022/09/14,12:40,0.593,0.853,0.538,1.038,0.748,0.341,0.596,0.561,�k�k��,4.7,��
2022/09/14,12:50,0.591,0.856,0.538,1.039,0.750,0.339,0.596,0.560,�k�k��,4.8,��
2022/09/14,13:00,0.588,0.854,0.539,1.038,0.749,0.341,0.596,0.561,�k�k��,4.8,��
2022/09/14,13:10,0.595,0.856,0.539,1.041,0.748,0.340,0.596,0.561,�k�k��,5.3,��
2022/09/14,13:20,0.596,0.852,0.538,1.039,0.748,0.342,0.596,0.560,�k��,4.8,��
2022/09/14,13:30,0.595,0.855,0.539,1.040,0.749,0.342,0.597,0.562,�k��,4.8,��
2022/09/14,13:40,0.595,0.853,0.539,1.038,0.748,0.342,0.595,0.561,�k��,5.6,��
2022/09/14,13:50,0.596,0.855,0.540,1.042,0.748,0.341,0.596,0.563,�k��,5.1,��
2022/09/14,14:00,0.597,0.852,0.539,1.041,0.749,0.341,0.594,0.561,�k��,6.7,��
2022/09/14,14:10,0.597,0.855,0.538,1.041,0.748,0.341,0.596,0.561,�k��,6.1,��
2022/09/14,14:20,0.597,0.856,0.538,1.042,0.748,0.342,0.597,0.562,�k��,6.8,��
2022/09/14,14:30,0.599,0.856,0.539,1.041,0.748,0.340,0.596,0.562,�k��,6.2,��
2022/09/14,14:40,0.598,0.854,0.539,1.041,0.749,0.341,0.595,0.560,�k��,6.9,��
2022/09/14,14:50,0.597,0.856,0.537,1.040,0.750,0.340,0.596,0.561,�k��,7.1,��
2022/09/14,15:00,0.595,0.855,0.538,1.041,0.748,0.340,0.596,0.561,�k��,5.5,��
2022/09/14,15:10,0.595,0.853,0.538,1.044,0.749,0.341,0.595,0.561,�k��,6.1,��
2022/09/14,15:20,0.595,0.855,0.541,1.042,0.749,0.342,0.595,0.559,�k��,6.1,��
2022/09/14,15:30,0.595,0.859,0.538,1.041,0.750,0.341,0.594,0.561,�k��,6.1,��
2022/09/14,15:40,0.592,0.854,0.537,1.041,0.748,0.343,0.595,0.559,�k��,5.4,��
2022/09/14,15:50,0.594,0.856,0.539,1.043,0.748,0.340,0.595,0.559,�k��,6.0,��
2022/09/14,16:00,0.592,0.854,0.537,1.040,0.748,0.341,0.595,0.559,�k��,6.3,��
2022/09/14,16:10,0.592,0.857,0.538,1.043,0.747,0.341,0.596,0.561,�k��,5.4,��
2022/09/14,16:20,0.595,0.855,0.537,1.040,0.749,0.340,0.596,0.560,�k��,5.3,��
2022/09/14,16:30,0.590,0.855,0.539,1.044,0.747,0.340,0.597,0.558,�k��,6.3,��
2022/09/14,16:40,0.591,0.855,0.537,1.041,0.750,0.340,0.597,0.560,�k��,5.7,��
2022/09/14,16:50,0.592,0.855,0.538,1.041,0.748,0.340,0.598,0.561,�k��,5.8,��
2022/09/14,17:00,0.593,0.857,0.537,1.040,0.749,0.341,0.596,0.561,�k��,6.6,��
2022/09/14,17:10,0.594,0.856,0.537,1.042,0.749,0.340,0.597,0.561,�k��,6.8,��
2022/09/14,17:20,0.593,0.856,0.540,1.042,0.749,0.342,0.596,0.560,�k��,7.0,��
2022/09/14,17:30,0.592,0.856,0.538,1.041,0.748,0.340,0.597,0.561,�k��,7.8,��
2022/09/14,17:40,0.594,0.855,0.539,1.040,0.749,0.340,0.596,0.561,�k��,7.3,��
2022/09/14,17:50,0.592,0.855,0.539,1.042,0.749,0.342,0.596,0.562,�k��,6.0,��
2022/09/14,18:00,0.593,0.855,0.539,1.040,0.748,0.340,0.597,0.562,�k��,6.3,��
2022/09/14,18:10,0.592,0.856,0.538,1.042,0.746,0.342,0.597,0.561,�k��,6.1,��
2022/09/14,18:20,0.593,0.855,0.539,1.041,0.748,0.340,0.595,0.562,�k��,6.4,��
2022/09/14,18:30,0.594,0.857,0.539,1.042,0.748,0.340,0.598,0.562,�k��,7.2,��
2022/09/14,18:40,0.592,0.856,0.539,1.041,0.746,0.341,0.596,0.563,�k��,7.6,��
2022/09/14,18:50,0.592,0.856,0.538,1.043,0.748,0.340,0.596,0.562,�k��,7.6,��
2022/09/14,19:00,0.591,0.857,0.537,1.041,0.749,0.341,0.597,0.562,���k��,6.6,��
2022/09/14,19:10,0.591,0.856,0.538,1.041,0.748,0.341,0.596,0.562,�k��,7.1,��
2022/09/14,19:20,0.592,0.855,0.538,1.041,0.749,0.340,0.596,0.561,���k��,6.0,��
2022/09/14,19:30,0.593,0.855,0.539,1.043,0.749,0.340,0.596,0.563,�k��,6.5,��
2022/09/14,19:40,0.591,0.856,0.539,1.043,0.749,0.339,0.595,0.562,�k��,6.0,��
2022/09/14,19:50,0.590,0.856,0.538,1.043,0.748,0.340,0.596,0.561,�k��,6.2,��
2022/09/14,20:00,0.591,0.858,0.537,1.042,0.750,0.340,0.596,0.562,�k��,6.2,�L
2022/09/14,20:10,0.592,0.858,0.538,1.044,0.749,0.339,0.596,0.561,�k��,5.6,�L
2022/09/14,20:20,0.592,0.856,0.538,1.043,0.750,0.340,0.597,0.562,�k��,6.3,�L
2022/09/14,20:30,0.592,0.855,0.538,1.043,0.749,0.341,0.597,0.561,�k��,4.9,��
2022/09/14,20:40,0.591,0.854,0.538,1.044,0.749,0.341,0.596,0.562,�k��,4.7,�L
2022/09/14,20:50,0.592,0.856,0.538,1.043,0.748,0.343,0.596,0.562,�k��,3.8,�L
2022/09/14,21:00,0.590,0.854,0.540,1.042,0.749,0.340,0.595,0.562,�k��,4.0,�L
2022/09/14,21:10,0.592,0.857,0.539,1.042,0.750,0.341,0.596,0.561,�k��,2.0,�L
2022/09/14,21:20,0.592,0.856,0.541,1.043,0.751,0.342,0.596,0.561,�k,2.2,�L
2022/09/14,21:30,0.594,0.860,0.540,1.045,0.750,0.342,0.597,0.562,�k��,2.3,�L
2022/09/14,21:40,0.594,0.858,0.541,1.045,0.751,0.342,0.598,0.562,�k��,1.4,�L
2022/09/14,21:50,0.591,0.856,0.541,1.044,0.750,0.343,0.597,0.561,�k��,1.5,�L
2022/09/14,22:00,0.594,0.856,0.540,1.043,0.753,0.343,0.598,0.562,�k��,3.5,�L
2022/09/14,22:10,0.593,0.857,0.542,1.044,0.751,0.344,0.598,0.561,���k��,1.2,�L
2022/09/14,22:20,0.593,0.859,0.540,1.045,0.752,0.341,0.595,0.561,���k��,2.3,�L
2022/09/14,22:30,0.593,0.856,0.538,1.042,0.748,0.344,0.598,0.562,�k��,1.7,�L
2022/09/14,22:40,0.593,0.856,0.540,1.043,0.749,0.342,0.597,0.562,�k�k��,1.4,�L
2022/09/14,22:50,0.594,0.856,0.538,1.043,0.749,0.343,0.598,0.562,�k,1.7,�L
2022/09/14,23:00,0.593,0.855,0.538,1.043,0.749,0.342,0.597,0.561,�k�k��,1.5,�L
2022/09/14,23:10,0.594,0.855,0.539,1.043,0.750,0.342,0.597,0.561,�k�k��,3.4,�L
2022/09/14,23:20,0.595,0.853,0.538,1.041,0.749,0.342,0.598,0.562,�k,1.9,�L
2022/09/14,23:30,0.594,0.855,0.538,1.041,0.749,0.342,0.597,0.563,�k,1.2,�L
2022/09/14,23:40,0.594,0.854,0.538,1.043,0.747,0.342,0.597,0.562,�k��,1.1,�L
2022/09/14,23:50,0.593,0.854,0.538,1.040,0.747,0.341,0.596,0.562,�k��,2.0,�L
